www.pogodaiklimat.ru
ПОГОДА в Мексике
Время
и дата
04:55 06.02
05:15 06.02
05:35 06.02
05:55 06.02
06:15 06.02
06:35 06.02
06:55 06.02
07:15 06.02
07:35 06.02
07:55 06.02
08:15 06.02
08:35 06.02
08:55 06.02
09:15 06.02
09:35 06.02
09:55 06.02
10:15 06.02
10:35 06.02
10:55 06.02
11:15 06.02
11:35 06.02
11:55 06.02
12:15 06.02
12:35 06.02
12:55 06.02
13:15 06.02
13:35 06.02
13:55 06.02
14:15 06.02
14:35 06.02
14:55 06.02
15:15 06.02
15:35 06.02
15:55 06.02
16:15 06.02
16:35 06.02
16:55 06.02
17:15 06.02
17:35 06.02
17:55 06.02
18:15 06.02
18:35 06.02
18:55 06.02
19:15 06.02
19:35 06.02
19:55 06.02
20:15 06.02
20:35 06.02
Ветер
(напр.,м/с)
Видим. Явления Облачность Т
(С)
Тd
(С)
f
(%)
Тe
(С)
Тes
(С)
Комфортность P
(гПа)
Po
(гПа)
Тmin
(С)
Tmax
(С)
R
(мм)
R24
(мм)
S
(см)
В 3 16 км ясно 0.0 -2.0 86 -5 -5 989.8
ЮВ 3 16 км ясно 0.0 -2.0 86 -5 -5 990.1
ЮВ 3 16 км ясно -2.0 -3.0 93 -7 -7 989.8
ЮВ 3 16 км ясно 0.0 -1.0 93 -5 -5 989.8
ЮВ 3 16 км ясно 0.0 -2.0 86 -5 -5 989.8
ЮВ 3 16 км ясно -1.0 -2.0 93 -6 -6 989.8
ЮВ 3 16 км ясно 0.0 -2.0 86 -5 -5 989.8
ЮВ 3 16 км ясно -1.0 -2.0 93 -6 -6 989.4
ЮВ 2 16 км ясно -1.0 -2.0 93 -5 -5 989.1
ЮВ 3 16 км ясно 0.0 -1.0 93 -5 -5 988.8
ЮВ 5 16 км ясно +2.0 0.0 87 -4 -3 988.8
ЮВ 5 16 км ясно +3.0 0.0 81 -2 -2 988.5
ЮВ 5 16 км ясно +4.0 0.0 75 -1 0 988.1
ЮВ 5 16 км ясно +5.0 0.0 70 +1 +2 988.1
ЮВ 6
{8}
16 км ясно +7.0 0.0 61 +3 +4 987.8
ЮВ 7
{10}
16 км ясно +8.0 0.0 57 +4 +5 987.5
ЮВ 6 16 км ясно +8.0 0.0 57 +4 +6 987.1
ЮВ 7
{11}
16 км ясно +11.0 +2.0 54 +8 +9 986.5
ЮВ 7
{11}
16 км ясно +11.0 +3.0 58 +8 +9 986.2
ЮВ 9
{12}
16 км ясно +12.0 +4.0 58 +9 +9 985.8
ЮВ 8
{10}
16 км ясно +13.0 +4.0 54 +10 +12 985.2
Ю 10
{13}
16 км ясно +13.0 +5.0 58 +10 +10 984.2
Ю 9
{13}
16 км ясно +14.0 +5.0 55 +12 +12 983.2
ЮВ 9
{14}
16 км ясно +14.0 +5.0 55 +12 +12 982.5
Ю 9
{13}
16 км ясно +15.0 +6.0 55 +13 +14 982.5
Ю 9
{14}
16 км ясно +15.0 +6.0 55 +13 +14 981.5
Ю 10
{13}
16 км ясно +15.0 +6.0 55 +13 +13 980.9
Ю 11
{16}
16 км ясно +16.0 +7.0 55 +14 +14 980.2
Ю 11
{14}
16 км ясно +16.0 +7.0 55 +14 +14 980.2
Ю 11
{14}
16 км ясно +15.0 +7.0 59 +13 +13 979.9
Ю 12
{15}
16 км ясно +15.0 +7.0 59 +12 +12 979.2
Ю 11
{14}
16 км ясно +15.0 +7.0 59 +13 +13 978.9
Ю 11
{13}
16 км ясно +15.0 +7.0 59 +13 +13 978.9
Ю 11
{16}
16 км ясно +15.0 +7.0 59 +13 +13 978.6
Ю 9
{14}
16 км ясно +15.0 +7.0 59 +13 +13 978.3
Ю 9
{13}
16 км ясно +15.0 +7.0 59 +13 +13 978.3
Ю 8
{12}
16 км ясно +15.0 +7.0 59 +13 +13 978.3
Ю 9
{10}
16 км ясно +14.0 +7.0 63 +11 +11 978.3
Ю 9
{12}
16 км ясно +13.0 +7.0 67 +10 +10 978.3
Ю 8
{11}
16 км ясно +13.0 +8.0 72 +10 +10 978.6
Ю 7 16 км ясно +13.0 +8.0 72 +10 +10 978.9
Ю 7 16 км ясно +13.0 +8.0 72 +10 +10 979.2
Ю 8 16 км ясно +13.0 +8.0 72 +10 +10 979.6
Ю 8
{12}
16 км 8/8 1800 м +13.0 +8.0 72 +10 +10 979.2
Ю 9
{12}
16 км 10/10 1800 м +13.0 +8.0 72 +10 +10 978.9
Ю 9
{11}
16 км 5/5 1800 м +13.0 +8.0 72 +10 +10 978.9
Ю 8
{10}
16 км ясно +13.0 +8.0 72 +10 +10 978.9
Ю 7
{10}
16 км 5/5 1440 м +13.0 +8.0 72 +10 +10 979.6
Местоположение метеостанции Mexico Memorial Airport: широта 39.1575 долгота -91.8183 высота над уровнем моря 249 м.
В архиве по умолчанию представлена погода в Мексике за последние 1-2 суток. Обновление информации о фактической погоде в базе происходит ежечасно! Архивные данные за месяц целиком и за предыдущие месяцы Вы можете получить, выбрав интересующий диапазон дат из раскрывающегося списка и нажав кнопку "Ввод!".
Внимание! Архив погоды МЕТАР в базе сайта по станциям, не включенным в климатический монитор, хранится не более 60 дней. Нет смысла пытаться выбрать более раннюю дату.
*Определитесь, кто Вы:
Внимание! Время в таблицах - местное (без учета летнего времени). Для получения всемирного времени необходимо вычесть поправку, которая равна -6 ч.
Смотрите также архив погоды в соседних городах и на ближайших метеорологических станциях:
Партнеры нашего сайта:      
Пояснения к столбцам:
  • Ветер - указаны скорость ветра в м/с - средняя за 10 мин, порывы в срок и между сроками (в фигурных скобках) и направление, откуда дует ветер: С - северный,
  • СВ - северо-восточный, В - восточный, ЮВ - юго-восточный, Ю - южный, ЮЗ - юго-западный, З - западный, СЗ - северо-западный.
  • Видимость - горизонтальная дальность видимости в метрах или километрах. При видимости от 1 до 10 км при отсутствии осадков обычно наблюдается дымка, при ухудшении видимости до 1 км и менее - туман. В сухую погоду видимость может ухудшаться дымом, пылью или мглою.
  • Явления - указаны атмосферные явления, наблюдавшиеся в срок или в последний час перед сроком; фигурными скобками обозначены явления, наблюдавшиеся между сроками (за 1-3 часа до срока); квадратными скобками обозначены град или гололедные отложения с указанием их диаметра в мм.
  • Облачность - указаны через наклонную черту общая и нижняя облачность в баллах и высота нижней границы облаков в метрах; квадратными скобками обозначены формы облаков: Ci - перистые, Cs - перисто-слоистые, Cc - перисто-кучевые, Ac - высококучевые, As - высокослоистые, Sc - слоисто-кучевые, Ns - слоисто-дождевые, Cu - кучевые, Cb - кучево-дождевые. Подробнее классификацию облаков см. в Атласе облаков (PDF).
  • T - Температура воздуха - температура, измеренная на высоте 2 м над землей.
  • Td - Температура точки росы - температура, при понижении до которой содержащийся в воздухе водяной пар достигнет насыщения.
  • f - Относительная влажность воздуха - влажноcть воздуха, измеренная на высоте 2 м над землей.
  • Te - Эффективная температура - температура, которую ощущает одетый по сезону человек в тени. Характеристика душности погоды. При расчете учитывается влияние влажности воздуха и скорости ветра на теплоощущения человека.
  • Tes - Эффективная температура на солнце - температура, которую ощущает человек, с поправкой на солнечный нагрев. Характеристика знойности погоды. Зависит от высоты солнца над горизонтом, облачности и скорости ветра. Ночью, в пасмурную погоду, а также при ветре 12 м/с и более поправка равна нулю.
  • P - Атмосферное давление - приведенное к уровню моря атмосферное давление.
  • Po - Атмосферное давление - измеренное на уровне метеостанции атмосферное давление.
  • Tmin - Минимальная температура - минимум температуры воздуха на высоте 2 м над землей.
  • Tmax - Максимальная температура - максимум температуры воздуха на высоте 2 м над землей.
  • R - Количество осадков - Количество выпавших осадков за период времени, мм. При наведении курсора мыши на число - период времени, за который выпало указанное количество осадков.
  • R24 - Количество осадков - Количество выпавших осадков за 24 часа, мм.
  • S - Снежный покров - Высота снежного покрова, см. При наведении курсора мыши на число - состояние снежного покрова и степень покрытия местности в баллах.